Regional Weather Roundup
Issued by NWS

Home | Current Version | Previous Version | Text Only | Print | Product List | Glossary Off
Versions: 1 2 3 4 5 6 7 8 9 10 11 12 13 14 15 16 17 18 19 20 21 22 23 24 25 26 27 28 29 30 31 32 33 34 35 36 37 38 39 40 41 42 43 44 45 46 47 48 49 50

000
ASUS45 KCYS 212110
RWRWY

WYOMING REGIONAL WEATHER ROUNDUP
NATIONAL WEATHER SERVICE CHEYENNE WY
300 PM MDT THU AUG 21 2014

NOTE:  "FAIR" INDICATES FEW OR NO CLOUDS BELOW 12,000 FEET
WITH NO SIGNIFICANT WEATHER AND/OR OBSTRUCTIONS TO VISIBILITY.

WYZ001-212200-
YELLOWSTONE NATIONAL PARK

CITY           SKY/WX    TMP DP  RH WIND       PRES   REMARKS
LK YELLOWSTONE   N/A     53  44  71 CALM      30.26R
W YELLOWSTONE  NOT AVBL

$$
WYZ002>013-054>058-071-098>099-212200-
NORTHERN WYOMING

CITY           SKY/WX    TMP DP  RH WIND       PRES   REMARKS
JACKSON        MOSUNNY   61  50  67 S12       30.18F
CODY           PTSUNNY  N/A N/A N/A N7        30.07F
GREYBULL       LGT RAIN  66  57  72 NW10      30.03R
WORLAND        PTSUNNY   74  50  42 N18       30.02R
SHERIDAN       PTSUNNY   70  56  61 NW7       30.03R
BUFFALO        PTSUNNY   70  50  49 VRB6      30.07S
GILLETTE       MOSUNNY   80  50  34 W8        29.99F
HULETT         MOCLDY    79  50  36 MISG      30.01
NEWCASTLE      FAIR      82  41  23 MISG      29.98

$$
WYZ014>020-022>026-101>103-212200-
CENTRAL WYOMING

CITY           SKY/WX    TMP DP  RH WIND       PRES   REMARKS
BIG PINEY      PTSUNNY   63  42  46 VRB3      30.22F
PINEDALE       MOCLDY    59  45  58 SW3       30.22F
DUBOIS         CLOUDY    57  45  62 NW9       30.20R
LANDER         MOSUNNY   73  43  33 NW13      30.05R
RIVERTON       PTSUNNY   78  42  27 W16G25    30.06R
CASPER         PTSUNNY   82  39  21 SW18G29   30.04F
DOUGLAS        MOSUNNY   84  42  22 W18G25    30.04F

$$
WYZ021-027>030-104>119-212200-
SOUTHERN WYOMING

CITY           SKY/WX    TMP DP  RH WIND       PRES   REMARKS
EVANSTON       CLOUDY    66  43  43 SW16      30.25S
KEMMERER       MOCLDY    63  43  48 W22G31    30.26R
FORT BRIDGER   CLOUDY    60  50  70 W13       30.29R THUNDER
ROCK SPRINGS   PTSUNNY   67  44  43 W10G22    30.21R
DIXON          MOCLDY    73  45  35 SW16G22   30.22S
RAWLINS        LGT RAIN  70  42  36 SW18      30.20R
SARATOGA       FAIR      72  43  35 MISG      30.22S
LARAMIE        PTSUNNY   71  38  29 W14       30.22R
CHEYENNE       CLOUDY    78  40  25 W8G22     30.13F
TORRINGTON     MOSUNNY   87  44  22 W7        29.99F
PINE BLUFFS    FAIR      81  41  24 CALM      30.09S

$$



USA.gov is the U.S. government's official web portal to all federal, state and local government web resources and services.